Simultaneous Nadir Overpasses (SNOs) Predictions

Prediction of SNOs between FY3D and METOP-C Satellite Orbit:

Table of predicted SNOs for the next 14.0 days since TLE Epoch: 5/25/2019
Index Date (FY3D) Time (FY3D) Lat,Lon (FY3D) SZA (FY3D ) Date (METOP-C) Time (METOP-C) Lat,Lon (METOP-C) SZA (METOP-C ) Distance(km) Time Diff (sec)
1 05/31/2019 06:40:06 73.78, 70.75 52.02 05/31/2019 06:41:11 73.73, 73.85 51.84 96.63 65
2 05/31/2019 07:30:49 -73.75,-121.87 128.01 05/31/2019 07:31:55 -73.68,-118.96 128.22 91.27 66
3 05/31/2019 08:21:29 73.47, 46.09 51.68 05/31/2019 08:22:39 73.41, 47.77 51.54 53.70 70
4 05/31/2019 09:12:12 -73.45,-146.53 128.36 05/31/2019 09:13:22 -73.41,-144.91 128.48 51.56 70
5 05/31/2019 10:02:53 73.21, 21.30 51.38 05/31/2019 10:04:06 73.14, 21.83 51.28 18.81 73
6 05/31/2019 10:53:36 -73.19,-171.33 128.65 05/31/2019 10:54:49 -73.14,-170.85 128.73 16.31 73
7 05/31/2019 11:44:19 73.05, -3.72 51.20 05/31/2019 11:45:29 73.07, -3.66 51.21 3.09 70
8 05/31/2019 12:35:02 -73.03, 163.64 128.83 05/31/2019 12:36:13 -73.02, 163.55 128.85 3.26 71
9 05/31/2019 13:25:48 73.04, -29.08 51.18 05/31/2019 13:26:51 73.05, -29.04 51.18 1.55 63
10 05/31/2019 14:16:31 -73.02, 138.29 128.85 05/31/2019 14:17:34 -73.05, 138.28 128.83 3.32 63
11 05/31/2019 15:07:17 73.04, -54.43 51.16 05/31/2019 15:08:13 73.03, -54.42 51.15 0.41 56
12 05/31/2019 15:57:59 -73.01, 112.94 128.87 05/31/2019 15:58:55 -73.03, 112.89 128.86 2.49 56
13 05/31/2019 16:48:45 73.03, -79.79 51.14 05/31/2019 16:49:34 73.01, -79.80 51.12 1.69 49
14 05/31/2019 17:39:28 -73.00, 87.58 128.89 05/31/2019 17:40:17 -73.01, 87.51 128.89 2.46 49
15 05/31/2019 18:30:14 73.02,-105.14 51.13 05/31/2019 18:30:56 72.99,-105.19 51.09 3.23 42
16 05/31/2019 19:20:57 -73.00, 62.23 128.91 05/31/2019 19:21:39 -72.99, 62.13 128.92 3.26 42
17 05/31/2019 20:11:43 73.01,-130.49 51.11 05/31/2019 20:12:17 73.03,-130.46 51.11 1.85 34
18 05/31/2019 21:02:27 -73.04, 36.77 128.87 05/31/2019 21:03:00 -73.02, 36.86 128.90 3.30 33
19 05/31/2019 21:53:12 73.00,-155.85 51.09 05/31/2019 21:53:39 73.01,-155.84 51.09 0.29 27
20 05/31/2019 22:43:55 -72.98, 11.52 128.95 05/31/2019 22:44:22 -73.00, 11.47 128.93 3.12 27
21 05/31/2019 23:34:41 73.00, 178.80 51.07 05/31/2019 23:35:01 72.99, 178.78 51.06 1.27 20
22 06/01/2019 00:25:24 -72.97, -13.83 128.97 06/01/2019 00:25:44 -72.98, -13.91 128.95 2.87 20
23 06/01/2019 01:16:10 72.99, 153.45 51.05 06/01/2019 01:16:23 72.97, 153.39 51.03 2.83 13
24 06/01/2019 02:06:53 -72.96, -39.18 128.98 06/01/2019 02:07:06 -72.96, -39.29 128.98 3.38 13
25 06/01/2019 02:57:39 72.98, 128.09 51.03 06/01/2019 02:57:44 73.00, 128.12 51.05 2.27 5
26 06/01/2019 03:48:23 -73.00, -64.65 128.95 06/01/2019 03:48:27 -73.00, -64.56 128.96 2.89 4
27 06/01/2019 04:39:08 72.97, 102.74 51.01 06/01/2019 04:39:06 72.98, 102.74 51.02 0.81 2
28 06/01/2019 05:29:52 -73.00, -90.00 128.97 06/01/2019 05:29:49 -72.98, -89.94 128.99 2.88 3
29 06/01/2019 06:20:37 72.96, 77.38 51.00 06/01/2019 06:20:28 72.96, 77.36 50.99 1.01 9
30 06/01/2019 07:11:20 -72.94,-115.25 129.04 06/01/2019 07:11:11 -72.96,-115.33 129.02 3.35 9
31 06/01/2019 08:02:06 72.95, 52.03 50.98 06/01/2019 08:01:50 72.94, 51.97 50.97 2.50 16
32 06/01/2019 08:52:50 -72.98,-140.71 129.00 06/01/2019 08:52:32 -72.99,-140.60 129.00 3.60 18
33 06/01/2019 09:43:35 72.95, 26.68 50.96 06/01/2019 09:43:11 72.97, 26.70 50.99 2.75 24
34 06/01/2019 10:34:19 -72.97,-166.06 129.02 06/01/2019 10:33:54 -72.97,-165.98 129.02 2.61 25
35 06/01/2019 11:25:04 72.94, 1.32 50.94 06/01/2019 11:24:33 72.95, 1.32 50.96 1.37 31
36 06/01/2019 12:15:48 -72.96, 168.59 129.04 06/01/2019 12:15:16 -72.95, 168.64 129.05 2.32 32
37 06/01/2019 13:06:33 72.93, -24.03 50.92 06/01/2019 13:05:55 72.93, -24.06 50.93 1.01 38
38 06/01/2019 13:57:17 -72.95, 143.23 129.06 06/01/2019 13:56:38 -72.93, 143.26 129.08 2.94 39
39 06/01/2019 14:48:02 72.92, -49.39 50.90 06/01/2019 14:47:17 72.91, -49.44 50.90 2.24 45
40 06/01/2019 15:38:46 -72.95, 117.88 129.08 06/01/2019 15:37:59 -72.96, 117.98 129.06 3.70 47
41 06/01/2019 16:29:31 72.91, -74.74 50.89 06/01/2019 16:28:38 72.94, -74.72 50.92 3.26 53
42 06/01/2019 17:20:15 -72.94, 92.53 129.10 06/01/2019 17:19:21 -72.94, 92.60 129.09 2.48 54
43 06/01/2019 18:11:00 72.90,-100.09 50.87 06/01/2019 18:10:00 72.92,-100.10 50.90 1.93 60
44 06/01/2019 19:01:44 -72.93, 67.17 129.11 06/01/2019 19:00:43 -72.92, 67.22 129.11 1.83 61
45 06/01/2019 19:52:29 72.90,-125.45 50.85 06/01/2019 19:51:22 72.90,-125.48 50.87 1.28 67
46 06/01/2019 20:43:13 -72.92, 41.82 129.13 06/01/2019 20:42:05 -72.90, 41.84 129.14 2.30 68
47 06/01/2019 21:33:58 72.89,-150.80 50.83 06/01/2019 21:32:44 72.88,-150.86 50.84 2.10 74
48 06/01/2019 22:24:42 -72.91, 16.46 129.15 06/01/2019 22:23:27 -72.88, 16.46 129.17 3.45 75
49 06/01/2019 23:15:22 72.63,-175.63 50.54 06/01/2019 23:14:10 72.66,-176.67 50.63 34.57 72
50 06/02/2019 00:06:06 -72.65, -8.36 129.44 06/02/2019 00:04:54 -72.61, -9.45 129.42 36.25 72
51 06/02/2019 00:56:46 72.36, 159.53 50.25 06/02/2019 00:55:38 72.33, 157.34 50.33 73.83 68
52 06/02/2019 01:47:29 -72.34, -33.11 129.79 06/02/2019 01:46:21 -72.33, -35.33 129.68 75.16 68




NCC Satellite Simultaneous Nadir Overpasses (SNOs) Prediction Service
